CW1172 Weather Reports


time (UTC)temp
C
wind
direction
speed
KPH
gust
KPH
rain 1hr
cm
rain 24hr
cm
rain mn
cm
humidity
%
barometer
mb
20260906224505 15 360 0.0 0.0 0.00 0.00 0.00 88 1017.9
20260906223004 15 234 0.0 0.0 0.00 0.00 0.00 87 1018.1
20260906220009 15 194 0.0 0.0 0.00 0.00 0.00 86 1017.9
20260906214502 15 244 0.0 0.0 0.00 0.00 0.03 85 1018.1
20260906213003 15 263 0.0 0.0 0.00 0.00 0.03 85 1018.1
20260906210004 15 261 0.0 0.0 0.00 0.00 0.03 86 1018.1
20260906204502 15 244 0.0 0.0 0.00 0.00 0.03 86 1018.3
20260906203002 15 228 0.0 0.0 0.00 0.00 0.03 85 1018.3
20260906200001 14 267 0.0 0.0 0.00 0.00 0.03 84 1018.4
20260906194501 14 312 0.0 0.0 0.00 0.00 0.03 84 1018.6
20260906193000 14 360 0.0 0.0 0.00 0.00 0.03 84 1018.5
20260906190002 14 188 0.0 0.0 0.00 0.00 0.03 82 1018.5
20260906184502 13 223 0.0 0.0 0.00 0.00 0.03 81 1018.5
20260906183005 13 360 0.0 0.0 0.00 0.00 0.03 81 1018.6
20260906180008 14 222 0.0 0.0 0.00 0.00 0.03 79 1018.6
20260906174503 14 203 0.0 0.0 0.00 0.00 0.03 78 1018.6
20260906173008 15 248 0.0 0.0 0.00 0.00 0.03 78 1018.5
20260906164602 15 360 0.0 0.0 0.00 0.00 0.03 77 1018.6
20260906163106 15 273 0.0 0.0 0.00 0.00 0.03 77 1018.6
20260906160003 15 227 0.0 0.0 0.00 0.00 0.03 77 1018.6
20260906154501 15 258 0.0 0.0 0.00 0.00 0.03 76 1018.6
20260906153100 15 239 0.0 0.0 0.00 0.00 0.03 75 1018.5
20260906150057 15 207 0.0 0.0 0.00 0.00 0.03 74 1018.2
20260906144603 16 234 0.0 0.0 0.00 0.00 0.03 73 1018.2
20260906143055 16 231 0.0 0.0 0.00 0.00 0.03 72 1018.3
20260906140055 16 234 0.0 0.0 0.00 0.00 0.03 68 1018.2
20260906134601 17 360 0.0 0.0 0.00 0.00 0.03 67 1018.2
20260906133058 17 267 0.0 0.0 0.00 0.00 0.03 62 1018.2
20260906130100 18 195 0.0 0.0 0.00 0.00 0.03 65 1017.8
20260906124551 18 279 0.0 0.0 0.00 0.00 0.03 68 1017.8
20260906123049 19 360 0.0 0.0 0.00 0.00 0.03 67 1017.8
20260906120048 19 271 0.0 0.0 0.00 0.00 0.03 67 1017.5
20260906114557 19 273 0.0 0.0 0.00 0.00 0.03 62 1017.4
20260906113054 19 285 0.0 0.0 0.00 0.00 0.03 66 1017.3
20260906110045 19 335 0.0 0.0 0.00 0.00 0.03 69 1017.1
20260906104542 19 77 0.0 0.0 0.00 0.00 0.03 68 1016.9
20260906103040 18 258 0.0 0.0 0.00 0.00 0.03 67 1016.7
20260906100040 18 190 0.0 0.0 0.00 0.00 0.00 72 1016.6
20260906094539 18 360 0.0 0.0 0.00 0.00 0.00 71 1016.4
20260906093038 18 304 0.0 0.0 0.00 0.00 0.00 72 1016.3
20260906090033 18 277 0.0 0.0 0.00 0.00 0.00 76 1016.0
20260906084532 17 224 0.0 0.0 0.00 0.00 0.00 75 1015.9
20260906083028 17 303 0.0 0.0 0.00 0.00 0.00 80 1015.7
20260906080032 16 287 0.0 0.0 0.00 0.00 0.00 86 1015.6
20260906074527 16 218 0.0 0.0 0.00 0.00 0.00 89 1015.4
20260906073022 15 210 0.0 0.0 0.00 0.00 0.00 92 1015.3
20260906070013 13 209 0.0 0.0 0.00 0.00 0.00 94 1014.8
20260906064512 13 131 0.0 0.0 0.00 0.00 0.00 95 1014.8
20260906063009 12 130 0.0 0.0 0.00 0.00 0.00 95 1014.7
20260906060059 10 130 0.0 0.0 0.00 0.00 0.00 95 1014.5
20260906054558 8 130 0.0 0.0 0.00 0.00 0.00 94 1014.3
20260906053056 8 129 0.0 0.0 0.00 0.00 0.00 94 1014.1
20260906051655 8 130 0.0 0.0 0.00 0.00 0.00 94 1013.9
20260906050056 8 130 0.0 0.0 0.00 0.00 0.00 94 1013.7
20260906044554 8 131 0.0 0.0 0.00 0.00 0.00 94 1013.7
20260906043053 8 130 0.0 0.0 0.00 0.00 0.00 94 1013.4
20260906041651 8 131 0.0 0.0 0.00 0.00 0.00 94 1013.0
20260906040050 8 131 0.0 0.0 0.00 0.00 0.00 94 1012.9
20260906034550 8 131 0.0 0.0 0.00 0.00 0.00 94 1012.8
20260906033052 8 130 0.0 0.0 0.00 0.00 0.00 94 1012.8
20260906031647 8 130 0.0 0.0 0.00 0.00 0.00 93 1012.5
20260906030045 8 130 0.0 0.0 0.00 0.00 0.00 93 1012.3
20260906024542 8 131 0.0 0.0 0.00 0.00 0.00 93 1012.1
20260906023041 8 130 0.0 0.0 0.00 0.00 0.00 93 1011.9
20260906021641 8 130 0.0 0.0 0.00 0.00 0.00 93 1011.8
20260906020040 8 130 0.0 0.0 0.00 0.00 0.00 93 1011.8
20260906014540 8 130 0.0 0.0 0.00 0.00 0.00 93 1011.7
20260906013038 8 112 0.0 0.0 0.00 0.00 0.00 93 1011.5
20260906011638 8 111 0.0 0.0 0.00 0.00 0.00 93 1011.2
20260906010036 8 113 0.0 0.0 0.00 0.00 0.00 93 1011.1
20260906004534 8 112 0.0 0.0 0.00 0.00 0.00 93 1011.0
20260906003033 8 111 0.0 0.0 0.00 0.00 0.00 93 1010.8
20260906001533 8 111 0.0 0.0 0.00 0.00 0.00 93 1010.6
20260906000031 8 264 0.0 0.0 0.00 0.00 0.00 93 1010.6
20260905234631 8 265 0.0 0.0 0.00 0.00 0.00 93 1010.5
20260905233030 8 263 0.0 0.0 0.00 0.00 0.00 93 1010.4
20260905231528 8 264 0.0 0.0 0.00 0.00 0.00 93 1010.2
20260905230029 8 264 0.0 0.0 0.00 0.00 0.00 92 1009.9